Location: Long Island Community Building
(39.9491°N, 99.5338°W)
Time: 03:56:40
(UTC+00:00)

Cosmos 2263 Rocket - Pass Details

Date: 06 December 2019
Orbit: 824 x 848 km, 71.0° (Epoch: 19 January)

Event Time Altitude Azimuth Distance (km) Brightness Sun altitude
Rises 12:47:44 0° 211° (SSW) 3,361 5.2 -10.8°
Reaches altitude 10° 12:50:11 10° 214° (SW) 2,428 4.5 -10.4°
Maximum altitude 12:55:42 63° 296° (WNW) 921 2.2 -9.4°
Drops below altitude 10° 13:01:13 10° 17° (NNE) 2,432 4.6 -8.4°
Sets 13:03:42 0° 21° (NNE) 3,368 5.3 -8.0°
